ONEWEB-0256 (48974 NORAD) Tracking and Keplerian Element Data

This shows tracking and keplerian element data for the satellite.

Feedback or suggestion? Click here.




ElementValue
Catalog48974
NameONEWEB-0256
Epoch Orbit1391
Epoch Day269.25001157
Epoch Year2021
RAAN211.9126
Inclination87.8993
Eccentricity0.0012428
Argument of Perigee349.9189
Mean Anonmoly43.0865
Mean Motion13.4378861
Decay Rate1.4E-07
L11 48974U 21060H 21269.25001157 .00000014 00000-0 00000+0 0 9996
L22 48974 87.8993 211.9126 0012428 349.9189 43.0865 13.43788610 13911

Live tracking and technical data element details for ONEWEB-0256 (NORAD 48974). ONEWEB-0256 can be tracked NOW for your location showing map with azimuth and elevation plus other details from your city location.

Track the satellite on the map from your city or location and see movement details for azimuth, elevation, latitude, longitude, range, height, and movement on the map or in text.







IsCatalogInMostPopularTable: catalog: 48974, numindb: 19
Update: records affected: 1



GetName: 48974 ONEWEB-0256

Hit Count: updated at: Sun, 26 Sep 2021 15:36:02 GMT